Regional Weather Roundup
Issued by NWS

Home | Current Version | Previous Version | Text Only | Print | Product List | Glossary On
Versions: 1 2 3 4 5 6 7 8 9 10 11 12 13 14 15 16 17 18 19 20 21 22 23 24 25 26 27 28 29 30 31 32 33 34 35 36 37 38 39 40 41 42 43 44 45 46 47 48 49 50
000
ASUS45 KCYS 080610
RWRWY

WYOMING REGIONAL WEATHER ROUNDUP
NATIONAL WEATHER SERVICE CHEYENNE WY
1100 PM MST WED DEC 07 2016

NOTE:  "FAIR" INDICATES FEW OR NO CLOUDS BELOW 12,000 FEET
WITH NO SIGNIFICANT WEATHER AND/OR OBSTRUCTIONS TO VISIBILITY.

WYZ001-080700-
YELLOWSTONE NATIONAL PARK

CITY           SKY/WX    TMP DP  RH WIND       PRES   REMARKS
LK YELLOWSTONE   N/A    -12 -16  82 CALM      30.19R
6HR MIN TEMP: -15; 6HR MAX TEMP:  -3;

W YELLOWSTONE  NOT AVBL

$$
WYZ002>013-054>058-071-098>099-080700-
NORTHERN WYOMING

CITY           SKY/WX    TMP DP  RH WIND       PRES   REMARKS
JACKSON        FAIR     -17 -18  91 N8        30.27S WCI -34
CODY           FAIR      -7 -10  87 CALM      30.39R
GREYBULL       FAIR      -1  -6  79 S5        30.49R WCI -11
6HR MIN TEMP:  -1; 6HR MAX TEMP:   9;

WORLAND        FAIR      -3  -6  87 CALM      30.46S
6HR MIN TEMP:  -5; 6HR MAX TEMP:   3;

SHERIDAN       FAIR      -8 -14  74 SW3       30.49S
6HR MIN TEMP:  -9; 6HR MAX TEMP:   1;

BUFFALO        FAIR      -4 -13  65 SW7       30.40R WCI -18
6HR MIN TEMP:  -6; 6HR MAX TEMP:   2;

GILLETTE       FAIR      -9 -12  87 W8        30.45R WCI -25
6HR MIN TEMP: -10; 6HR MAX TEMP:  -4;

HULETT         FAIR      -4  -9  77 S7        30.46S WCI -18
NEWCASTLE      FAIR      -8 -13  77 NW6       30.47R WCI -21

$$
WYZ014>020-022>026-101>103-080700-
CENTRAL WYOMING

CITY           SKY/WX    TMP DP  RH WIND       PRES   REMARKS
BIG PINEY      FAIR     -11 -16  78 CALM      30.24R
6HR MIN TEMP: -15; 6HR MAX TEMP:   4;

PINEDALE       FAIR     -17 -22  76 W12       30.24S WCI -38
DUBOIS         FAIR      -9 -17  70 NW8       30.19S WCI -26
LANDER         CLOUDY     3  -3  76 CALM      30.33R
6HR MIN TEMP:   2; 6HR MAX TEMP:   5;

RIVERTON       CLOUDY     3  -2  79 CALM      30.34S
6HR MIN TEMP:  -1; 6HR MAX TEMP:   6;

CASPER         FAIR     -22 -25  85 CALM      30.38R
6HR MIN TEMP: -25; 6HR MAX TEMP:  -4;

DOUGLAS        FAIR     -12 -20  67 CALM      30.43R
6HR MIN TEMP: -13; 6HR MAX TEMP:  -1;


$$
WYZ021-027>030-104>119-080700-
SOUTHERN WYOMING

CITY           SKY/WX    TMP DP  RH WIND       PRES   REMARKS
EVANSTON       FAIR      -1  -8  72 S5        30.20S WCI -11
6HR MIN TEMP:  -1; 6HR MAX TEMP:  10;

KEMMERER         N/A     -6 -11  77 N12       30.20S WCI -24
FORT BRIDGER   CLEAR      5   0  78 S3        30.25R
ROCK SPRINGS   FAIR      -2  -7  79 SE3       30.25R
6HR MIN TEMP:  -4; 6HR MAX TEMP:   7;

DIXON          FAIR      -2  -8  74 E3        30.32S
RAWLINS        FAIR     -14 -19  79 CALM      30.26R
6HR MIN TEMP: -14; 6HR MAX TEMP:   4;

SARATOGA       FAIR      -9 -13  84 CALM      30.26S
LARAMIE        FAIR     -14 -18  82 S3        30.21R
6HR MIN TEMP: -16; 6HR MAX TEMP:  -3;

CHEYENNE       FAIR     -12 -17  78 W6        30.31R WCI -26
6HR MIN TEMP: -12; 6HR MAX TEMP:   0;

TORRINGTON     FAIR      -6 -11  79 W6        30.46R WCI -19
6HR MIN TEMP:  -6; 6HR MAX TEMP:   7;

PINE BLUFFS    FAIR     -13 -18  77 MISG      30.41R

$$



USA.gov is the U.S. government's official web portal to all federal, state and local government web resources and services.